Regional Weather Roundup
Issued by NWS

Home | Current Version | Previous Version | Graphics & Text | Print | Product List | Glossary On
Versions: 1 2 3 4 5 6 7 8 9 10 11 12 13 14 15 16 17 18 19 20 21 22 23 24 25 26 27 28 29 30 31 32 33 34 35 36 37 38 39 40 41 42 43 44 45 46 47 48 49 50
000
ASUS43 KDMX 230706
RWRIA

WEATHER ROUNDUP FOR IOWA
NATIONAL WEATHER SERVICE DES MOINES IA
200 AM CDT MON OCT 23 2017

NOTE: "FAIR" INDICATES FEW OR NO CLOUDS BELOW 12,000 FEET WITH NO
SIGNIFICANT WEATHER AND/OR OBSTRUCTIONS TO VISIBILITY.

* - THESE STATIONS ARE NOT NWS STATIONS...THUS NOT UNDER NWS
QUALITY CONTROL.  THEY ALSO DO NOT REPORT WEATHER SUCH
AS PRECIPITATION OR FOG.

IAZ001>003-012>014-020>022-031>034-043>046-230800-
   NORTHWEST IOWA

CITY           SKY/WX    TMP DP  RH WIND       PRES   REMARKS
CHEROKEE *     CLEAR     46  35  65 S7        29.87F
DENISON *      PTCLDY    50  34  53 S7        29.92F
LE MARS *      PTCLDY    50  34  53 VRB7      29.84F
ORANGE CITY *  PTCLDY    48  36  61 S7        29.84F
SHELDON *      CLOUDY    48  32  53 S7        29.83F
SIOUX CITY     CLOUDY    43  36  76 E7        29.87F
SPENCER        CLEAR     45  34  65 S7        29.86F
STORM LAKE *   CLEAR     45  36  70 S9        29.88F
$$

IAZ055>058-069>071-079>083-090>094-230800-
   SOUTHWEST IOWA

CITY           SKY/WX    TMP DP  RH WIND       PRES   REMARKS
ATLANTIC *     CLEAR     45  36  70 S6        29.94F
AUDUBON *      CLEAR     48  36  61 S5        29.93F
CLARINDA *     CLEAR     45  37  76 S5        29.98F
COUNCIL BLFS * CLEAR     54  32  43 S10       29.92F
CRESTON *      CLEAR     45  39  81 S13       29.97F
HARLAN  *      PTCLDY    45  36  70 SW3       29.96F
LAMONI         CLEAR     46  41  82 S8        29.99F
RED OAK *      CLEAR     45  37  76 S6        29.95F
SHENANDOAH *   CLEAR     46  36  66 CALM      29.96F
$$

IAZ047>049-059>061-072>074-084-230800-
   CENTRAL IOWA

CITY           SKY/WX    TMP DP  RH WIND       PRES   REMARKS
AMES           CLEAR     40  40 100 SE5       29.96F
ANKENY *       CLEAR     45  41  87 CALM      29.98S
BOONE *        CLEAR     48  37  66 S8        29.94F
CHARITON *     CLEAR     45  41  87 S8        29.98F
DES MOINES     CLEAR     47  42  83 S8        29.97F
GRINNELL*      PTCLDY    43  39  88 S6        29.99F
KNOXVILLE *    CLEAR     46  39  76 S9        29.97F
MARSHALLTOWN   CLEAR     45  41  86 S6        29.97S
NEWTON *       CLEAR     43  39  87 S3        29.98F
PELLA *        CLEAR     44  39  85 S3        29.99F
PERRY *          N/A     43  39  86 S6        29.94F
$$

IAZ004>006-015-016-023>025-035-036-230800-
   NORTH CENTRAL IOWA

CITY           SKY/WX    TMP DP  RH WIND       PRES   REMARKS
ALGONA *       PTCLDY    46  36  66 S10       29.89F
CLARION *      CLEAR     46  39  76 S13       29.91F
ESTHERVILLE    PTCLDY    44  37  76 S9        29.85F
FORT DODGE *   CLEAR     49  34  56 S10       29.91F
MASON CITY     CLEAR     42  38  85 S8        29.93F
FOREST CITY *    N/A     45  37  76 S9        29.91F
WEBSTER CITY * CLEAR     45  37  76 S7        29.91F
IOWA FALLS *     N/A     44  40  88 S5        29.96F
$$

IAZ007>011-017>019-026>030-037>042-050>054-066-230800-
   NORTHEAST IOWA

CITY           SKY/WX    TMP DP  RH WIND       PRES   REMARKS
CEDAR RAPIDS   CLOUDY    42  41  96 SE5       29.98F
CHARLES CITY * CLEAR     45  43  93 S7        29.95F
CLINTON *      CLOUDY    47  46  97 W3        30.01F FOG
DECORAH *      CLEAR     45  43  93 S7        29.95F
DUBUQUE        CLOUDY    42  41  96 SW3       30.01S
MONTICELLO *   PTCLDY    39  39 100 CALM      30.00F
OELWEIN *      CLEAR     41  41 100 S6        29.98F
WATERLOO       CLEAR     43  41  93 S7        29.96F
$$

IAZ064-065-067-068-078-230800-
   EAST CENTRAL IOWA

CITY           SKY/WX    TMP DP  RH WIND       PRES   REMARKS
DAVENPORT      CLOUDY    48  46  93 CALM      30.04R FOG
IOWA CITY      FOG       44  42  93 CALM      30.02F VSB 1/4
MUSCATINE *    CLOUDY    46  46 100 CALM      30.02F
QUAD CITIES    CLOUDY    50  47  89 W3        30.00F
$$

IAZ062-063-075>077-085>089-095>099-230800-
   SOUTHEAST IOWA

CITY           SKY/WX    TMP DP  RH WIND       PRES   REMARKS
BURLINGTON     CLOUDY    50  49  96 W3        30.02F
FAIRFIELD *    PTCLDY    46  43  87 CALM      30.00F
FORT MADISON * CLOUDY    48  48 100 CALM      30.03S
KEOKUK *       CLOUDY    48  48 100 CALM      30.02S
OSKALOOSA *      N/A     43  42  97 S8        30.00F
OTTUMWA        CLOUDY    46  43  89 S5        30.00F
WASHINGTON *   PTCLDY    45  45 100 S5        30.02F
$$

ABBREVIATIONS USED IN REMARKS
   TC - TEMPERATURES IN CELSIUS
  WCI - WIND CHILL INDEX
   HX - HEAT INDEX
  VSB - VISIBILITY
$$





USA.gov is the U.S. government's official web portal to all federal, state and local government web resources and services.